Wetbulb
65.62 65.46 65.73 61.94 48.46 49.35 43.93 47.19 50.85 51.67 51.34 53.48 54.51 55.62 54.81 57.06 56.84 50.06 65.45 69.66 70.02 69.84 73.35 76.04 77.77 77.51 77.23 76.93 76.45 75.74 74.42 73.33 73.25 73.55 74.88 74.57 73.35 72.41 72.14 71.93 71.76 71.74 72.56 73.62 73.75 74.21 74.26 74.44 74.34
63.59 66.69 63.58 58.07 44.59 38.97 39.19 49.25 49.99 51.31 54.34 55.13 54.40 58.36 56.12 58.26 63.61 63.76 65.44 69.76 70.50 70.92 73.01 75.45 77.90 77.49 77.26 76.93 76.57 76.10 74.54 73.65 73.14 72.99 74.00 73.99 73.03 72.19 72.10 71.79 71.74 71.73 72.73 73.27 73.40 74.06 73.97 73.81 73.72
62.64 64.97 57.25 51.70 45.98 40.57 41.46 48.01 50.23 53.18 53.56 52.89 52.97 60.22 59.93 60.55 63.79 64.28 66.82 70.45 71.45 71.49 72.93 75.25 77.18 77.10 77.00 76.67 76.14 76.29 74.81 73.55 73.10 73.29 74.40 73.91 73.02 72.08 72.02 71.65 71.46 71.45 72.11 73.08 73.00 73.58 73.38 73.08 73.08
58.54 56.73 53.46 48.71 44.72 48.89 47.65 49.15 50.14 50.23 51.76 56.12 54.95 54.37 62.43 64.70 63.45 63.70 70.35 71.14 72.25 72.16 72.20 75.71 76.88 76.93 76.54 75.92 75.63 76.05 75.05 73.84 73.16 73.49 74.50 73.90 72.96 71.99 71.83 71.45 71.23 71.29 71.84 72.21 72.23 72.68 72.79 72.73 72.69
55.01 51.43 43.60 42.13 43.46 46.61 47.44 49.35 47.69 47.64 50.29 53.59 55.68 53.71 59.74 64.34 65.85 64.99 69.79 72.18 71.82 71.52 72.39 74.76 76.07 76.22 76.26 75.52 75.75 75.45 74.87 74.58 73.88 73.60 74.32 73.78 72.97 72.00 71.56 70.88 70.71 71.01 71.22 71.17 71.37 72.26 72.08 72.32 72.33
48.42 47.57 39.86 37.05 41.23 45.43 46.23 46.03 47.06 46.80 52.11 53.72 52.75 52.87 59.14 64.18 63.92 63.41 68.19 70.47 72.62 71.87 72.56 74.24 75.52 75.77 75.53 75.51 75.63 75.18 74.32 74.48 74.27 73.70 74.34 73.52 73.02 71.97 71.51 70.56 69.90 70.78 71.44 71.27 71.10 71.91 71.59 71.29 71.26
47.01 43.59 38.97 38.43 41.03 42.65 45.78 46.66 44.75 45.08 51.38 51.23 56.37 52.25 55.26 61.92 64.07 64.22 65.76 69.05 71.78 72.63 72.49 72.37 72.13 73.50 74.97 75.14 75.22 74.81 74.30 73.73 74.05 73.95 73.69 73.34 73.09 71.96 71.45 70.43 69.30 69.62 71.27 70.91 71.87 71.68 71.07 70.56 70.08
49.47 45.70 40.52 39.29 38.79 39.88 45.54 46.72 48.94 46.12 46.83 52.65 58.54 51.71 51.30 61.97 65.48 65.53 65.80 66.23 66.00 67.53 70.31 65.75 65.66 71.05 71.45 72.58 74.65 74.18 74.23 73.71 73.19 73.37 73.26 73.11 72.70 72.48 71.25 70.22 69.11 68.46 70.55 70.57 70.84 70.96 70.02 69.81 69.24
49.73 40.87 37.84 39.94 39.32 40.96 46.12 45.46 48.20 49.23 46.84 48.37 56.43 56.84 58.79 63.05 64.69 64.10 63.56 64.47 64.94 66.04 65.38 63.35 64.12 63.38 68.79 70.06 72.11 73.62 73.85 73.61 72.66 72.33 72.82 72.00 69.20 69.41 68.71 69.16 69.25 67.88 69.81 70.19 69.72 70.06 69.32 68.53 67.94
45.01 38.07 39.66 45.05 43.23 41.90 46.23 45.68 46.70 45.95 45.58 45.07 48.00 52.80 60.09 60.33 57.63 60.87 60.95 61.33 63.18 65.27 65.05 63.22 61.89 62.48 63.07 71.01 70.45 69.22 70.79 69.37 67.97 69.66 68.44 68.07 66.84 66.55 67.23 69.16 69.43 67.25 68.74 69.64 69.11 69.31 68.03 63.97 60.47
43.62 38.94 43.56 45.56 46.57 46.93 46.48 46.32 48.04 45.23 44.01 45.93 46.45 48.27 51.97 59.33 56.52 56.77 59.02 60.81 62.17 63.15 63.68 61.87 61.65 63.09 62.49 66.60 68.58 68.00 67.09 68.33 68.41 67.21 67.31 67.10 66.37 66.65 65.24 64.70 63.30 60.44 65.62 62.97 62.17 60.72 58.20 57.61 58.40
40.00 44.86 45.13 47.22 49.00 47.98 45.79 47.58 46.20 45.92 46.64 48.73 48.95 48.54 51.86 52.13 55.45 57.14 55.81 58.83 58.85 60.18 60.69 59.95 62.14 62.43 63.12 65.23 68.54 67.91 67.48 68.51 67.85 66.78 66.98 66.39 64.81 63.22 62.18 61.25 58.38 57.96 58.03 57.89 57.23 57.23 56.33 56.85 56.91
42.02 44.81 47.68 48.49 48.36 47.58 48.12 46.18 45.60 45.98 48.24 49.11 50.20 49.34 48.39 48.66 49.11 48.39 53.90 58.97 57.98 57.57 59.11 60.63 62.46 62.37 66.31 67.44 68.18 67.54 67.06 68.12 67.18 66.19 66.54 66.09 64.12 62.20 60.49 58.94 57.33 56.66 57.27 56.74 55.40 55.05 56.25 55.88 56.08
45.23 46.18 46.63 47.36 47.49 47.77 46.55 45.57 46.57 47.07 48.38 48.47 48.95 48.00 48.25 48.95 49.46 50.50 51.67 52.55 59.07 58.24 59.33 62.12 62.26 65.42 64.05 64.17 66.77 66.75 66.55 67.59 66.85 65.77 66.17 65.38 63.75 61.71 59.80 57.55 56.07 55.42 55.21 53.31 53.19 56.75 56.24 55.47 55.91
46.78 43.02 43.88 44.39 46.32 45.85 47.13 42.79 43.33 46.43 47.88 47.02 46.82 46.64 48.03 49.03 50.27 49.92 51.92 52.48 53.35 59.24 59.42 62.63 64.32 65.26 64.41 66.29 64.88 65.83 65.00 66.61 66.50 65.51 65.15 65.01 63.44 61.57 59.26 56.27 54.59 53.13 50.66 51.31 50.77 53.34 54.83 54.72 55.64
41.60 39.11 34.99 42.19 45.50 46.00 45.13 37.90 44.52 47.10 45.96 45.47 45.51 44.76 47.23 48.68 49.92 50.27 52.63 52.88 54.07 58.27 61.57 63.77 64.35 63.69 64.15 63.56 64.41 65.07 65.32 65.49 66.64 65.99 64.61 64.23 63.38 62.19 58.91 56.21 53.75 50.72 50.35 48.76 51.98 54.02 53.27 52.15 53.88
36.55 31.74 33.74 38.35 43.92 44.92 42.51 38.41 44.18 46.79 46.05 45.16 44.78 45.12 46.72 48.68 50.67 51.30 52.57 53.03 54.06 55.96 63.23 63.21 63.63 64.06 63.35 63.00 64.05 64.27 65.68 65.51 66.57 66.57 63.46 63.24 62.90 61.90 59.40 55.96 52.10 49.12 48.78 48.48 52.13 49.08 53.21 51.60 51.27
31.53 31.23 34.56 34.48 40.86 42.70 40.21 40.04 43.24 45.20 45.34 44.03 43.76 44.14 45.94 47.93 49.05 51.25 52.08 53.18 54.24 56.43 63.52 63.95 64.51 65.27 64.86 64.67 64.76 64.52 65.12 65.44 64.54 65.44 61.86 62.13 60.97 61.04 58.04 53.04 50.10 48.90 48.03 47.62 48.08 48.88 47.48 51.06 51.77
36.45 34.46 34.08 37.55 43.11 41.90 40.15 39.65 42.32 44.65 44.06 43.64 43.91 45.59 47.22 47.48 49.77 50.69 51.96 52.72 53.44 57.87 63.00 63.20 63.77 65.60 65.14 63.96 63.99 64.29 63.93 64.36 63.03 62.98 61.76 59.97 59.44 59.48 55.26 50.22 48.52 48.43 48.82 48.24 48.24 46.84 48.23 45.83 47.25
37.50 34.56 34.33 39.05 43.39 41.58 38.97 39.58 42.14 43.57 43.59 43.32 44.64 46.48 46.83 47.09 47.96 49.02 51.14 52.20 52.51 55.58 62.06 61.84 62.92 63.68 63.91 63.95 63.98 63.85 64.19 63.62 61.32 61.62 60.12 59.18 57.08 56.33 55.08 49.58 48.34 48.43 47.71 47.66 47.79 48.02 46.43 45.67 45.66
35.46 34.46 34.36 36.12 40.50 40.78 38.22 35.87 38.50 42.23 43.37 44.09 44.95 46.90 48.59 48.84 49.58 50.21 51.06 51.56 52.36 54.79 61.74 61.16 61.72 61.84 62.14 62.88 63.51 62.37 61.50 60.08 58.31 58.10 57.30 55.53 56.25 54.32 51.90 49.02 49.14 48.22 48.81 48.41 47.53 47.95 47.41 45.42 46.16
32.40 39.50 39.76 39.10 36.34 31.61 37.11 28.93 33.75 38.60 40.13 41.19 44.28 45.92 48.17 49.31 50.72 51.41 51.51 51.88 52.13 53.90 61.42 62.09 61.90 61.59 61.79 61.59 61.42 61.25 59.08 56.56 54.98 54.58 54.45 53.45 53.18 52.60 52.20 49.74 48.86 49.03 48.66 48.95 48.46 49.17 48.27 47.43 45.78
36.78 40.87 39.11 38.67 35.60 33.28 34.05 29.83 31.79 37.27 37.70 40.36 44.30 47.29 48.16 49.31 50.09 51.40 52.14 52.96 54.12 56.26 59.86 59.49 58.87 58.15 58.94 60.01 59.72 59.31 58.05 56.23 54.74 54.18 53.14 54.18 53.21 53.28 52.38 50.37 49.36 48.75 48.81 48.68 49.88 48.82 48.15 48.31 47.70
42.24 39.90 37.74 37.32 35.10 29.36 32.59 31.59 30.03 34.45 37.09 41.58 45.86 47.30 48.06 49.11 50.34 52.50 55.67 55.98 58.23 59.56 59.76 58.48 56.87 56.71 57.41 59.20 58.62 57.78 56.06 55.71 54.20 52.78 51.19 51.25 51.91 52.36 52.54 52.22 50.86 49.58 49.50 50.11 50.19 50.14 50.07 50.13 50.00
39.23 33.44 24.00 26.28 23.62 25.77 34.53 30.74 32.42 37.84 41.08 43.07 45.08 46.96 48.31 49.39 50.01 51.98 55.29 56.53 57.03 57.99 58.26 57.85 56.87 55.96 57.71 58.42 57.57 55.84 54.22 53.61 52.06 52.10 51.41 51.14 51.58 51.52 51.59 51.91 51.49 51.41 51.48 51.36 51.01 50.55 50.20 50.06 50.10
35.04 33.52 22.61 15.23 17.53 21.76 34.39 26.31 32.92 41.93 43.12 45.14 46.98 48.16 48.77 48.56 49.43 50.77 53.65 56.16 57.54 57.54 57.45 57.42 57.06 56.39 56.38 56.63 56.94 56.85 56.52 55.16 54.39 53.67 52.62 52.26 51.84 51.71 52.45 52.23 52.08 51.94 51.97 51.90 51.81 51.40 50.60 49.92 49.23
34.81 31.64 36.02 28.36 27.08 24.64 28.97 33.28 38.53 42.66 42.41 43.44 45.71 47.02 47.59 47.99 48.76 49.29 51.43 53.18 55.50 56.01 55.88 55.97 55.88 56.07 55.91 55.71 55.46 55.53 56.07 55.67 54.91 53.51 53.33 52.68 52.44 52.49 52.47 52.21 51.80 51.80 51.80 51.71 51.53 50.90 50.26 49.86 49.33
36.06 39.85 31.10 28.96 20.28 20.55 25.28 27.02 28.96 33.88 38.60 42.48 43.82 46.06 47.06 48.20 48.18 48.60 50.01 50.86 51.75 53.63 53.96 54.08 54.46 54.18 54.88 55.12 54.91 54.60 54.68 54.81 54.69 54.72 53.36 52.05 52.30 52.17 51.77 51.60 51.34 51.13 51.16 50.98 50.41 49.84 49.56 49.22 48.59
35.40 33.77 32.78 32.29 29.72 24.13 22.47 26.53 33.61 35.99 40.56 41.60 42.67 44.74 46.91 47.17 46.99 47.65 48.49 49.64 49.81 50.51 51.62 52.09 52.29 52.19 52.30 52.94 53.06 53.13 53.24 53.46 53.60 53.32 53.60 53.04 51.79 50.97 51.08 51.31 51.06 50.75 50.43 50.18 49.28 48.87 48.38 47.92 46.82
36.82 34.90 32.75 26.90 26.01 27.19 25.73 27.82 38.95 39.36 41.94 43.30 42.06 44.41 47.27 46.88 46.10 46.87 47.26 47.81 48.10 48.55 49.57 50.04 50.35 50.03 49.93 50.36 51.08 51.45 51.99 52.09 51.50 51.11 51.25 51.37 50.68 51.21 51.01 50.72 50.09 49.59 49.09 48.91 48.64 46.98 46.49 45.98 44.26
MSLP
1012.20 1011.88 1012.06 1012.62 1014.27 1014.70 1014.52 1013.32 1012.14 1011.19 1010.12 1009.13 1008.67 1008.43 1007.93 1008.01 1008.52 1009.62 1008.81 1009.15 1009.09 1009.57 1010.06 1010.36 1010.57 1010.86 1011.17 1011.52 1011.93 1012.33 1012.70 1013.01 1013.29 1013.56 1013.72 1014.01 1014.22 1014.48 1014.63 1014.80 1014.92 1014.98 1014.99 1015.03 1015.07 1015.07 1015.13 1015.12 1015.19
1012.26 1012.08 1012.65 1013.56 1014.78 1015.27 1014.45 1013.05 1012.06 1011.23 1010.31 1009.27 1008.36 1008.27 1008.30 1009.07 1009.12 1009.83 1009.87 1009.67 1009.52 1009.83 1010.11 1010.45 1010.66 1011.00 1011.21 1011.59 1011.95 1012.40 1012.87 1013.06 1013.36 1013.66 1013.93 1014.18 1014.47 1014.68 1014.89 1015.04 1015.14 1015.24 1015.36 1015.39 1015.46 1015.47 1015.53 1015.62 1015.61
1012.16 1012.31 1013.48 1014.32 1015.23 1015.32 1014.38 1013.02 1012.36 1011.00 1009.89 1009.51 1008.96 1008.77 1009.05 1010.07 1010.01 1009.93 1009.56 1009.85 1010.03 1010.42 1010.49 1010.68 1010.89 1011.17 1011.40 1011.70 1012.03 1012.44 1012.95 1013.18 1013.48 1013.71 1013.98 1014.27 1014.61 1014.91 1015.06 1015.28 1015.46 1015.53 1015.66 1015.66 1015.75 1015.86 1015.96 1016.08 1016.12
1012.53 1013.22 1014.49 1014.95 1015.34 1014.75 1014.04 1013.22 1012.27 1011.18 1010.06 1009.66 1009.67 1009.69 1010.10 1010.61 1010.58 1009.99 1009.80 1009.90 1010.34 1010.68 1010.95 1010.97 1011.24 1011.41 1011.69 1012.00 1012.35 1012.68 1013.06 1013.38 1013.69 1013.91 1014.06 1014.36 1014.71 1015.12 1015.35 1015.52 1015.75 1015.88 1015.98 1015.97 1016.14 1016.26 1016.35 1016.52 1016.67
1013.22 1014.37 1015.44 1015.73 1015.44 1014.56 1013.72 1013.11 1012.40 1011.72 1010.94 1010.64 1010.49 1010.41 1010.79 1010.91 1010.93 1010.22 1009.96 1010.30 1010.54 1011.08 1011.02 1011.26 1011.36 1011.78 1011.89 1012.25 1012.54 1012.88 1013.34 1013.71 1013.94 1014.22 1014.38 1014.56 1014.84 1015.23 1015.63 1015.79 1016.03 1016.18 1016.23 1016.39 1016.51 1016.61 1016.78 1016.98 1017.11
1014.27 1015.16 1016.12 1016.25 1015.50 1014.48 1013.69 1013.14 1012.46 1011.87 1011.35 1010.95 1010.89 1011.17 1011.49 1011.52 1011.33 1010.86 1010.16 1010.49 1010.77 1011.13 1011.29 1011.45 1011.59 1012.00 1012.31 1012.42 1012.62 1013.06 1013.45 1013.80 1014.17 1014.42 1014.62 1014.83 1015.06 1015.36 1015.81 1016.01 1016.22 1016.40 1016.47 1016.68 1016.75 1016.95 1017.23 1017.50 1017.66
1014.53 1015.61 1016.19 1016.06 1015.40 1014.44 1013.59 1012.82 1012.63 1012.22 1011.76 1011.33 1011.38 1011.51 1011.65 1011.63 1011.62 1011.35 1010.63 1010.31 1010.67 1011.00 1011.49 1011.95 1012.12 1012.21 1012.51 1012.77 1012.91 1013.14 1013.52 1014.01 1014.20 1014.62 1014.76 1014.98 1015.29 1015.61 1015.99 1016.29 1016.52 1016.58 1016.88 1016.90 1016.89 1017.32 1017.72 1017.95 1018.20
1014.36 1015.46 1016.06 1015.73 1015.11 1014.18 1013.31 1012.83 1012.33 1012.28 1011.82 1011.36 1011.45 1011.84 1011.75 1011.70 1011.71 1011.59 1011.13 1010.91 1011.21 1011.39 1011.67 1012.96 1013.49 1013.02 1012.92 1013.26 1013.24 1013.44 1013.64 1014.11 1014.48 1014.77 1015.03 1015.25 1015.56 1015.86 1016.20 1016.47 1016.74 1016.85 1017.21 1017.26 1017.32 1017.60 1018.17 1018.47 1018.71
1014.09 1015.43 1015.95 1015.19 1014.53 1013.88 1013.05 1012.81 1012.41 1012.12 1012.07 1011.83 1011.77 1011.87 1011.93 1011.94 1011.84 1011.84 1011.84 1011.70 1012.07 1012.03 1011.97 1013.18 1014.05 1014.40 1014.46 1013.67 1013.53 1013.49 1013.79 1014.25 1014.64 1015.05 1015.38 1015.74 1016.08 1016.17 1016.51 1016.74 1017.00 1017.15 1017.47 1017.57 1017.73 1018.06 1018.61 1019.01 1019.32
1014.35 1015.31 1015.10 1014.36 1013.81 1013.49 1013.01 1012.82 1012.51 1012.51 1012.39 1012.15 1011.93 1011.71 1011.82 1012.12 1012.16 1011.97 1011.96 1012.00 1012.24 1012.45 1012.52 1012.52 1014.30 1014.15 1014.57 1014.31 1013.58 1013.56 1013.61 1014.26 1014.80 1015.13 1015.68 1016.13 1016.45 1016.68 1016.95 1017.04 1017.26 1017.53 1017.82 1017.93 1018.06 1018.57 1019.10 1019.59 1019.95
1014.14 1014.46 1014.09 1013.61 1013.23 1012.99 1012.84 1012.65 1012.55 1012.66 1012.66 1012.54 1012.45 1012.05 1011.93 1012.02 1012.27 1012.26 1011.91 1011.68 1011.67 1012.25 1012.79 1012.29 1013.20 1013.13 1014.59 1013.92 1013.41 1013.58 1013.70 1014.27 1014.87 1015.40 1015.80 1016.20 1016.68 1017.00 1017.37 1017.51 1017.65 1017.99 1018.20 1018.59 1018.83 1019.33 1019.84 1020.13 1020.41
1013.86 1013.61 1013.50 1012.98 1012.56 1012.63 1012.65 1012.58 1012.77 1013.11 1013.25 1012.59 1012.54 1012.37 1012.44 1012.53 1012.63 1012.55 1012.40 1012.09 1011.79 1012.14 1012.30 1012.40 1013.67 1013.27 1013.15 1013.37 1012.80 1012.98 1013.41 1014.10 1014.84 1015.53 1015.87 1016.21 1016.84 1017.37 1017.70 1018.03 1018.33 1018.55 1018.90 1019.25 1019.48 1019.79 1020.22 1020.56 1020.95
1013.60 1013.29 1013.03 1012.53 1012.42 1012.47 1012.44 1012.57 1012.97 1013.28 1013.37 1013.27 1012.90 1012.91 1013.23 1013.37 1013.07 1012.69 1012.35 1011.82 1011.85 1011.87 1012.16 1013.10 1013.17 1012.47 1012.65 1012.94 1012.54 1012.80 1013.12 1013.90 1014.62 1015.38 1015.86 1016.32 1016.81 1017.42 1017.86 1018.28 1018.59 1018.93 1019.25 1019.48 1019.85 1020.13 1020.51 1021.00 1021.44
1013.33 1013.25 1012.83 1012.50 1012.14 1012.12 1012.34 1012.60 1012.95 1013.47 1013.60 1013.67 1013.52 1013.74 1013.71 1013.68 1013.33 1013.07 1012.64 1012.12 1011.82 1011.78 1012.28 1012.24 1012.76 1012.73 1012.11 1013.29 1013.15 1013.41 1013.13 1013.71 1014.54 1015.23 1015.69 1016.30 1016.76 1017.33 1017.86 1018.49 1018.80 1019.16 1019.41 1019.59 1019.88 1020.13 1020.77 1021.28 1021.66
1013.35 1013.50 1013.02 1012.60 1012.24 1012.11 1012.14 1012.95 1013.52 1014.00 1014.08 1014.29 1014.26 1014.15 1014.00 1013.83 1013.45 1013.11 1012.70 1012.33 1011.61 1011.06 1011.66 1011.57 1011.93 1011.63 1012.04 1013.25 1013.54 1014.36 1014.19 1013.91 1014.50 1015.23 1015.63 1016.08 1016.63 1017.20 1017.87 1018.51 1018.90 1019.31 1019.63 1019.84 1020.10 1020.61 1021.06 1021.66 1022.06
1013.96 1014.08 1013.92 1012.99 1012.55 1012.45 1012.54 1013.34 1013.73 1014.18 1014.50 1014.83 1014.85 1014.69 1014.15 1013.65 1013.42 1012.96 1012.57 1012.07 1011.14 1010.69 1010.76 1011.31 1011.47 1011.75 1012.33 1012.64 1012.72 1013.83 1013.83 1014.25 1014.45 1015.07 1015.68 1016.05 1016.47 1016.99 1017.69 1018.31 1018.87 1019.34 1019.53 1019.94 1020.27 1020.70 1021.51 1022.01 1022.64
1014.99 1014.91 1014.59 1013.71 1012.80 1012.89 1013.22 1013.56 1013.91 1014.29 1014.62 1014.89 1014.94 1014.81 1014.42 1013.59 1013.00 1012.73 1012.46 1011.87 1011.35 1010.67 1010.35 1011.10 1011.53 1012.00 1012.57 1012.42 1012.98 1012.88 1013.24 1014.18 1014.80 1014.91 1015.49 1015.85 1016.34 1016.95 1017.49 1017.97 1018.79 1019.28 1019.71 1020.26 1020.50 1021.25 1021.54 1022.41 1023.07
1015.34 1015.24 1014.75 1014.27 1013.35 1013.27 1013.55 1013.73 1014.06 1014.42 1014.83 1015.03 1015.08 1015.08 1014.96 1014.45 1013.72 1013.01 1012.41 1011.90 1011.07 1010.13 1009.98 1010.76 1010.81 1011.83 1012.53 1012.50 1013.10 1013.57 1013.75 1014.45 1014.74 1014.93 1015.38 1015.70 1016.15 1016.60 1017.31 1017.97 1018.56 1019.09 1019.75 1020.38 1020.79 1021.23 1021.94 1022.40 1022.97
1014.80 1014.93 1014.75 1014.04 1013.56 1013.63 1013.60 1013.90 1014.30 1014.57 1014.65 1014.87 1015.03 1014.93 1014.85 1014.63 1013.92 1013.06 1012.47 1011.69 1011.14 1010.22 1009.78 1009.88 1010.52 1011.16 1012.02 1012.44 1012.91 1013.54 1013.56 1014.15 1014.89 1015.18 1015.48 1015.68 1015.94 1016.64 1017.21 1017.98 1018.48 1019.00 1019.67 1020.18 1020.71 1021.50 1021.98 1022.89 1023.15
1014.55 1014.68 1014.61 1014.12 1013.83 1014.05 1013.98 1014.16 1014.47 1014.69 1014.64 1014.90 1015.19 1014.88 1014.72 1014.46 1013.79 1012.98 1012.31 1011.73 1011.13 1010.47 1010.00 1010.06 1010.19 1010.68 1011.25 1011.60 1012.05 1012.86 1013.45 1014.13 1014.71 1015.16 1015.95 1016.27 1016.10 1016.72 1017.32 1017.83 1018.58 1018.93 1019.55 1020.30 1020.73 1021.13 1022.29 1022.74 1022.97
1014.22 1014.49 1014.56 1014.61 1014.19 1014.13 1014.46 1014.59 1014.86 1014.72 1014.82 1014.91 1015.12 1014.78 1014.42 1014.12 1013.76 1013.03 1012.14 1011.50 1011.23 1010.68 1010.28 1010.18 1010.12 1010.52 1011.05 1011.34 1011.91 1012.88 1013.61 1014.40 1015.39 1016.10 1016.47 1017.19 1016.90 1016.96 1017.58 1017.95 1018.43 1018.98 1019.22 1020.08 1020.65 1021.01 1021.42 1022.58 1023.15
1014.05 1013.89 1014.41 1014.89 1015.19 1015.24 1015.20 1015.79 1015.48 1015.35 1015.12 1015.32 1015.06 1014.61 1014.20 1014.06 1013.63 1013.05 1012.11 1011.58 1011.19 1010.87 1010.73 1010.66 1010.62 1010.83 1011.33 1011.49 1012.21 1012.68 1013.27 1014.68 1015.25 1016.83 1017.10 1017.40 1017.40 1017.31 1017.81 1018.75 1018.42 1018.83 1019.24 1019.72 1020.16 1020.61 1021.05 1021.73 1022.78
1013.86 1014.11 1014.92 1015.29 1015.84 1016.17 1016.12 1016.73 1015.72 1015.70 1015.61 1015.50 1015.24 1014.79 1014.45 1014.15 1013.51 1012.74 1011.82 1011.68 1011.32 1011.39 1011.35 1011.44 1011.59 1011.84 1011.89 1012.16 1012.90 1013.19 1013.83 1014.66 1015.11 1016.29 1016.70 1017.42 1017.80 1018.52 1019.04 1019.20 1018.78 1019.24 1019.53 1019.83 1020.08 1020.63 1021.05 1021.34 1022.26
1013.89 1014.72 1015.69 1016.45 1017.04 1017.34 1016.83 1017.14 1016.49 1016.37 1016.40 1015.88 1015.26 1015.02 1014.85 1014.36 1013.70 1012.84 1012.02 1011.91 1011.78 1011.73 1011.90 1012.37 1012.60 1013.00 1013.03 1013.06 1013.41 1013.66 1013.87 1015.01 1015.68 1016.72 1017.52 1018.19 1018.87 1018.05 1019.07 1019.59 1019.65 1019.73 1019.64 1020.03 1020.22 1020.61 1021.19 1021.55 1022.24
1014.31 1015.86 1017.29 1018.23 1018.64 1018.18 1017.49 1017.54 1016.31 1016.20 1016.27 1016.18 1015.70 1015.27 1015.22 1014.85 1014.34 1013.58 1012.66 1012.35 1012.62 1012.62 1012.77 1013.36 1013.42 1013.69 1013.89 1013.81 1014.37 1014.54 1015.29 1015.64 1015.92 1016.86 1016.90 1017.65 1018.15 1018.73 1019.13 1019.43 1019.91 1020.18 1020.25 1020.33 1020.51 1020.97 1021.60 1021.72 1021.93
1014.74 1016.06 1017.86 1019.07 1020.03 1019.12 1017.98 1017.45 1016.22 1016.16 1016.27 1016.00 1015.77 1015.64 1015.35 1015.23 1015.08 1014.68 1014.17 1013.62 1013.34 1013.41 1013.63 1013.93 1014.15 1014.35 1014.72 1014.64 1014.81 1015.21 1015.47 1016.28 1016.44 1017.15 1017.28 1017.98 1017.98 1018.90 1019.19 1019.86 1020.14 1020.56 1020.55 1020.98 1021.28 1021.75 1022.02 1021.88 1022.36
1014.90 1016.09 1017.20 1018.87 1020.11 1019.89 1018.36 1016.99 1016.22 1016.39 1016.35 1016.24 1016.02 1015.87 1015.61 1015.65 1015.46 1015.38 1015.19 1014.95 1014.69 1014.28 1014.49 1014.68 1014.88 1015.17 1015.36 1015.42 1015.53 1015.74 1016.21 1016.05 1016.79 1017.73 1017.99 1018.19 1018.60 1019.32 1019.62 1020.11 1020.43 1020.83 1020.84 1021.51 1022.04 1022.16 1022.57 1022.16 1022.32
1014.36 1015.57 1017.16 1018.49 1019.65 1019.70 1018.53 1017.52 1016.60 1016.42 1016.52 1016.66 1016.39 1016.17 1016.08 1015.72 1015.76 1015.67 1015.52 1015.51 1015.45 1015.64 1015.50 1015.37 1015.54 1015.79 1015.63 1015.77 1016.16 1016.29 1016.46 1016.35 1017.08 1017.81 1018.34 1018.63 1018.98 1019.49 1019.89 1020.39 1020.67 1021.07 1021.38 1021.89 1022.19 1022.38 1022.57 1022.39 1022.28
1014.79 1015.38 1016.69 1017.93 1018.83 1019.13 1018.83 1017.16 1015.82 1016.02 1016.39 1016.67 1016.70 1016.61 1016.49 1016.36 1016.29 1016.31 1016.19 1015.99 1015.91 1015.78 1015.76 1016.14 1016.35 1016.23 1016.51 1016.64 1016.82 1016.92 1017.03 1017.23 1017.82 1018.58 1019.19 1019.17 1019.09 1019.99 1020.27 1020.64 1020.71 1021.61 1021.87 1022.25 1022.50 1022.88 1023.19 1022.97 1023.03
1013.85 1014.63 1015.72 1017.48 1018.60 1018.83 1018.56 1016.76 1015.68 1016.01 1016.34 1016.50 1016.87 1016.96 1016.83 1016.78 1016.79 1016.74 1016.72 1016.62 1016.48 1016.40 1016.37 1016.34 1016.41 1016.66 1016.92 1017.28 1017.38 1017.97 1017.87 1018.52 1018.70 1019.54 1020.03 1019.56 1019.63 1020.40 1020.51 1020.76 1021.01 1021.88 1022.06 1022.24 1022.75 1022.96 1023.20 1023.19 1023.36
Wind_Speed
4 4 2 4 5 5 3 6 3 7 7 5 7 7 2 2 2 5 1 6 11 17 12 16 20 22 21 20 21 21 20 19 18 16 16 18 18 18 17 16 16 15 14 15 15 16 19 19 20
2 2 4 3 5 2 6 4 5 3 8 13 8 3 5 5 4 3 4 2 13 13 11 12 19 20 20 20 21 21 20 19 18 17 16 17 17 17 17 16 16 16 15 15 16 17 19 19 19
1 2 4 4 3 5 4 3 6 14 12 5 5 5 3 2 4 2 1 9 12 10 9 9 19 20 20 20 21 21 20 20 19 18 19 19 18 17 17 17 16 16 15 16 17 18 19 20 20
2 5 5 4 4 5 4 7 7 13 7 7 5 1 4 2 3 5 8 13 12 8 6 9 19 19 20 21 21 20 21 20 19 17 19 20 19 18 17 17 16 16 16 17 17 18 19 20 21
4 3 4 2 4 4 5 4 8 7 5 5 6 4 3 3 3 7 8 9 10 6 5 8 18 19 20 21 21 20 19 18 18 16 17 20 19 19 18 17 17 16 16 15 16 17 19 20 20
5 3 4 2 4 4 5 5 5 6 6 7 6 4 2 4 6 4 8 7 6 7 6 7 16 18 19 21 21 20 19 18 18 16 15 18 20 19 17 17 17 16 16 16 15 18 20 19 20
6 4 4 3 4 4 2 8 3 5 5 6 3 4 2 2 2 4 5 7 7 5 5 3 6 12 18 18 19 20 20 17 17 16 16 18 18 19 18 16 16 17 16 18 19 21 21 19 19
5 5 3 2 2 4 2 5 2 3 5 6 2 4 4 2 3 3 4 7 8 5 7 9 10 5 7 9 17 19 18 17 15 14 13 17 18 18 17 16 16 16 16 19 20 21 19 18 19
4 5 2 3 1 6 4 4 3 3 3 4 2 1 2 1 2 1 2 3 5 6 8 8 7 11 12 5 11 18 18 16 15 12 14 15 5 9 10 11 15 17 17 19 19 22 20 18 18
5 4 7 5 3 4 4 1 4 3 5 3 5 3 3 4 3 5 5 5 5 6 7 10 6 6 10 13 8 7 11 7 5 5 7 5 5 5 6 9 14 16 17 18 19 21 19 12 5
3 5 4 5 6 6 4 5 1 3 6 6 7 7 5 4 4 7 8 9 8 6 5 7 8 3 14 15 5 3 4 5 4 7 6 7 5 4 3 2 4 3 9 4 7 8 4 7 6
0 5 4 4 4 1 3 2 6 2 6 10 6 6 5 6 5 7 9 8 5 8 6 2 9 11 10 15 7 8 7 6 5 6 8 7 4 4 4 3 4 4 4 6 5 5 6 7 6
3 3 3 6 8 6 2 4 4 2 5 7 8 10 9 7 8 7 7 9 4 5 4 6 8 2 3 14 4 6 8 7 7 7 7 6 6 5 4 4 4 4 4 5 4 6 6 7 6
1 4 7 6 6 4 2 1 5 0 7 8 10 8 6 6 6 5 8 9 5 6 7 7 6 8 4 6 4 1 6 8 8 7 8 7 6 5 4 4 4 4 4 4 5 8 7 5 6
3 4 7 2 4 2 5 1 2 4 4 8 9 8 6 5 5 7 6 8 8 7 12 10 9 8 4 3 4 4 4 6 7 7 9 10 7 7 6 4 4 4 4 6 6 6 6 6 4
4 4 5 7 4 2 5 7 0 5 4 7 7 8 8 8 6 6 7 8 10 6 14 16 13 14 14 13 6 2 2 4 6 7 7 10 9 9 7 5 4 4 4 5 7 7 6 5 5
6 1 2 8 2 1 3 6 1 4 5 7 7 8 10 13 13 10 10 11 10 9 13 14 16 17 13 6 9 6 5 3 5 6 7 10 10 8 7 7 5 6 5 5 8 4 8 6 4
4 2 4 6 4 1 3 7 3 3 4 4 5 5 7 9 8 11 13 11 10 11 10 13 10 15 13 9 9 8 7 3 3 6 5 10 8 10 7 5 7 6 5 5 5 7 4 4 6
3 3 4 4 4 3 5 5 5 4 4 6 7 9 11 9 9 11 11 10 9 7 9 12 10 16 11 9 8 6 9 5 3 3 5 8 10 10 7 5 7 6 7 6 7 4 8 3 3
4 2 5 5 4 2 2 6 3 5 5 2 8 12 10 9 9 11 12 8 7 5 6 7 8 9 9 6 9 3 5 3 5 3 5 1 8 7 8 7 6 6 6 7 6 7 4 2 3
2 4 3 6 5 1 0 6 2 4 3 5 6 6 10 10 12 12 12 10 6 5 6 8 10 10 7 9 9 7 8 6 5 5 4 6 4 6 6 4 6 6 6 8 6 6 7 4 1
3 5 3 3 3 3 3 5 3 4 8 4 8 9 10 14 12 11 11 11 6 5 4 3 5 6 7 6 6 11 9 10 4 5 5 5 8 8 6 5 5 7 4 7 5 5 5 6 4
7 2 3 3 3 2 2 3 6 5 7 10 11 13 13 13 14 13 8 6 6 1 6 7 9 7 6 5 5 6 8 6 10 9 11 7 6 7 5 1 5 5 4 4 6 5 5 4 4
2 3 6 4 3 2 3 4 5 4 5 8 10 13 13 14 14 13 10 7 9 7 9 10 9 8 6 5 5 6 10 11 9 8 8 7 4 8 7 5 5 4 5 6 6 7 8 8 6
5 5 3 4 5 6 1 2 8 4 2 3 11 12 11 10 12 13 14 13 10 8 10 9 9 11 9 10 9 9 9 8 9 8 8 9 6 5 6 6 6 4 5 6 7 9 8 6 8
2 6 7 6 2 6 4 4 5 3 2 3 6 8 8 9 10 12 12 9 9 11 10 10 9 9 9 9 10 9 11 7 6 6 6 3 6 7 8 7 6 7 8 8 7 5 5 7 6
3 2 4 7 1 3 4 5 1 2 4 5 7 7 9 7 9 10 9 8 7 10 10 10 9 8 8 8 7 8 7 11 8 7 6 6 7 6 7 7 7 4 8 6 4 4 3 4 4
2 7 3 4 2 3 5 5 6 5 5 5 4 5 7 9 8 9 9 9 9 9 9 10 10 9 8 8 8 7 8 10 8 6 7 7 8 7 8 6 6 5 5 4 3 3 2 3 3
2 1 4 4 4 4 2 7 6 6 6 6 5 3 4 6 6 7 7 7 8 8 9 9 9 11 9 8 9 9 9 10 9 6 6 7 8 7 7 7 7 5 5 3 3 1 2 2 3
4 6 6 6 4 1 3 7 2 5 7 6 3 2 1 2 4 5 6 7 7 8 8 8 8 9 8 9 9 9 10 8 9 7 5 8 9 6 6 6 6 4 3 3 3 4 3 4 4
Wind_Direction
342 318 68 46 50 60 275 266 270 317 321 311 276 281 235 92 157 216 34 159 129 157 171 171 166 163 158 163 156 146 143 139 134 131 127 125 121 118 115 113 113 111 102 87 83 92 86 82 83
326 103 46 89 88 62 268 272 275 296 291 305 297 274 21 31 36 49 70 155 144 156 167 169 167 164 162 162 155 148 148 142 141 138 136 132 126 124 121 118 114 113 109 98 94 97 90 89 87
266 42 87 99 127 192 232 257 326 309 306 288 332 38 46 325 21 129 309 137 146 159 172 176 169 167 166 160 156 151 151 147 147 147 143 138 131 130 124 121 118 116 115 103 97 99 97 92 89
92 16 27 99 224 253 237 318 305 318 332 14 346 94 56 159 307 277 137 139 149 148 170 187 174 172 165 161 158 155 153 152 151 152 146 140 136 134 128 124 121 119 121 112 99 103 100 94 91
38 56 73 102 258 266 297 307 320 312 298 316 337 331 36 16 303 37 112 132 139 144 166 183 180 176 168 164 159 156 156 157 154 157 153 145 141 137 133 128 126 126 122 118 112 108 103 100 94
46 95 70 215 255 277 301 337 295 350 339 324 30 333 350 343 357 347 104 121 124 148 181 194 183 180 172 166 162 160 161 161 159 162 165 154 146 141 137 133 131 130 124 116 115 120 107 103 98
111 87 180 197 264 305 331 319 47 329 336 345 313 353 268 272 260 317 93 103 139 147 161 205 205 189 180 174 168 163 162 165 164 168 167 158 149 144 140 134 132 129 129 115 114 108 107 105 99
107 94 129 251 263 269 279 336 300 46 292 297 355 10 324 251 229 275 79 90 85 79 94 50 6 279 204 188 174 170 166 164 167 169 167 159 150 141 141 138 135 131 137 122 112 112 113 106 104
110 68 162 231 169 274 290 5 303 327 357 314 42 302 308 176 266 312 11 57 50 95 98 39 25 13 321 221 191 172 166 161 163 167 157 147 145 138 134 140 139 137 142 127 118 116 112 107 103
91 113 210 217 215 233 275 310 305 359 324 297 327 293 175 198 242 219 232 220 196 203 141 112 336 332 347 256 195 185 163 148 144 137 124 114 110 118 135 144 140 140 144 128 123 119 111 93 74
153 171 206 251 230 225 240 303 198 315 315 237 265 294 288 221 263 242 239 223 202 167 143 142 170 234 280 291 175 170 141 127 119 124 127 131 125 120 111 117 119 116 126 82 97 101 88 98 98
171 239 218 262 229 262 265 330 328 72 284 304 281 269 354 3 318 260 273 277 256 170 173 183 176 167 229 272 179 159 147 139 134 143 139 137 122 123 132 121 117 110 104 94 100 106 99 86 82
188 260 245 254 279 252 240 269 209 31 340 7 46 49 41 19 7 357 299 273 167 240 117 198 159 232 286 265 170 169 151 151 144 144 148 142 142 142 135 129 128 131 111 116 112 120 109 101 94
251 283 281 288 274 235 207 49 144 31 6 9 27 20 18 23 13 4 352 344 243 192 181 156 157 157 58 302 352 247 170 153 149 151 154 146 147 146 140 138 144 135 118 128 123 134 124 109 111
288 332 326 254 316 252 141 336 99 343 20 22 11 349 348 1 3 2 326 322 315 222 179 192 177 154 170 258 35 328 262 150 149 161 158 154 151 156 148 147 151 144 128 114 109 98 108 105 93
26 50 19 296 340 47 88 263 346 353 13 17 1 347 337 336 345 344 333 321 320 296 193 187 179 174 198 199 144 207 271 199 159 160 167 166 161 159 150 149 152 135 115 111 126 129 112 110 127
5 262 273 311 326 247 147 258 253 359 4 17 2 351 343 341 348 348 338 319 307 314 187 181 178 184 201 182 160 203 226 197 183 170 175 173 162 159 161 157 145 140 123 116 136 95 135 129 110
245 281 263 245 291 342 266 257 269 301 4 341 316 350 345 333 322 326 321 315 310 318 163 174 173 172 179 163 172 179 212 208 175 184 174 167 162 162 156 150 144 141 126 124 116 126 72 130 140
207 211 255 257 257 298 254 242 234 293 277 346 349 4 344 331 317 309 313 312 313 340 158 162 174 164 168 173 175 191 195 161 140 169 181 166 157 160 158 152 141 142 145 153 138 109 126 88 119
200 231 270 293 264 222 245 259 243 282 287 347 6 340 332 327 317 306 314 317 321 331 147 155 159 153 168 175 171 154 165 139 103 73 57 346 149 156 162 155 155 153 128 137 147 140 121 92 180
236 192 224 231 317 316 280 311 314 291 297 357 325 299 330 332 331 321 314 313 317 353 145 165 160 149 159 146 129 110 111 78 76 80 59 5 65 92 57 170 153 154 146 155 159 153 132 133 220
288 209 196 280 6 258 45 280 303 306 305 340 327 342 339 342 336 328 309 308 313 343 122 170 91 107 134 107 130 142 126 119 93 68 83 58 35 46 32 315 152 159 150 152 155 152 146 128 147
224 92 262 231 216 356 320 77 268 336 318 333 337 340 349 346 340 334 301 291 312 122 102 96 83 65 75 98 109 113 120 120 144 136 134 114 101 71 69 259 132 125 108 113 137 126 119 111 129
59 85 44 44 75 341 281 126 285 307 285 316 335 337 352 348 352 356 38 63 70 82 89 86 73 60 59 94 94 135 141 148 137 130 121 117 132 96 70 59 54 68 108 117 112 106 103 101 96
76 55 346 357 6 228 357 52 247 262 255 305 321 326 348 355 1 13 35 48 65 81 85 94 72 65 69 74 90 98 103 111 119 138 127 133 120 94 84 72 65 64 77 85 100 106 111 111 102
122 140 151 205 208 270 314 251 270 209 226 345 309 321 337 21 11 18 28 36 61 69 73 76 73 70 56 67 82 111 114 117 110 95 104 97 109 117 106 91 78 88 76 71 77 81 92 95 98
180 127 162 109 39 39 263 293 303 210 309 338 332 352 344 16 24 26 28 37 49 71 79 78 74 71 74 68 70 70 101 107 105 127 122 124 117 134 126 126 120 96 91 88 82 81 84 93 89
161 158 92 7 106 279 294 288 246 263 259 283 339 358 345 350 30 26 33 38 48 66 77 76 79 74 71 71 75 72 77 86 87 86 121 126 123 128 130 124 110 105 97 90 66 55 24 53 78
140 155 66 114 138 177 295 265 215 204 193 216 266 334 354 353 15 31 35 41 52 64 69 85 86 85 74 71 80 72 73 75 78 74 90 114 108 112 127 132 120 123 129 123 113 153 219 172 136
178 178 144 123 212 191 152 273 7 160 181 191 236 284 80 32 30 33 48 61 54 56 58 59 67 69 74 77 73 76 71 75 85 81 87 93 94 108 118 116 110 118 115 126 160 149 145 137 136